Temp
59 60 61 62 62 61 60 59 59 58 57 57 57 58 59 62 60 57 60 62 68 67 67 67 67 66 66 66 65 65 65 67
58 58 60 60 60 59 59 57 57 58 57 53 53 52 55 58 57 57 58 59 66 68 67 66 67 66 66 66 64 64 63 64
54 56 57 58 58 57 57 57 57 57 57 55 54 53 55 57 57 56 56 57 59 62 66 66 66 65 65 64 63 63 62 62
52 53 54 56 56 55 56 56 57 57 56 55 54 54 53 53 53 55 55 55 57 59 63 66 66 66 64 64 64 63 61 62
51 52 53 54 54 55 56 56 56 57 55 53 50 49 47 50 52 53 54 55 55 57 59 66 66 65 64 64 64 63 63 61
50 51 53 55 55 54 54 54 55 55 54 53 51 49 50 51 52 51 52 53 54 55 56 58 65 65 65 64 64 63 62 61
51 52 53 53 54 53 53 52 53 54 53 53 51 49 48 48 49 49 50 51 52 53 54 55 58 65 64 64 64 64 62 62
49 50 50 51 51 51 52 51 51 53 52 52 52 50 50 48 48 48 48 49 50 51 52 53 55 59 64 64 64 63 63 62
49 50 50 50 50 50 50 50 50 51 51 51 51 52 50 49 49 49 49 49 49 52 53 53 54 56 62 64 64 64 64 62
48 49 50 49 50 49 48 49 50 51 50 50 50 51 50 49 50 49 49 49 51 52 53 53 53 54 56 64 63 63 63 63
47 48 48 49 50 50 48 48 49 50 50 50 50 50 51 50 50 48 48 48 49 50 52 53 52 53 56 60 64 64 63 63
46 48 48 49 49 49 48 48 48 48 49 49 48 49 49 50 49 49 47 48 48 49 51 53 52 52 54 55 62 63 63 62
46 47 47 47 47 48 48 47 48 48 48 48 48 48 49 49 48 48 47 46 48 49 50 52 53 53 53 53 51 63 62 62
44 45 45 45 46 47 48 48 47 47 48 47 47 47 47 47 47 47 46 46 47 48 50 51 51 49 47 47 48 51 62 62
43 43 44 45 46 46 47 47 47 47 47 46 45 46 46 47 47 46 45 46 46 47 48 49 48 45 44 44 45 47 50 61
41 42 43 44 45 46 47 46 46 46 46 45 45 46 47 47 46 45 44 45 46 47 46 47 46 45 43 40 41 44 47 52
41 44 44 44 45 45 45 44 45 45 44 44 46 46 47 46 45 44 43 43 44 45 44 45 44 44 39 39 39 42 46 49
42 43 44 44 44 45 43 44 44 43 43 44 44 46 46 45 45 44 42 42 44 44 44 44 44 43 39 39 39 46 48 49
43 44 44 45 46 45 44 44 43 42 42 42 44 44 45 46 44 42 41 41 42 43 44 44 44 42 39 38 38 45 46 48
MSLP
1023.57 1023.51 1023.17 1022.76 1022.33 1022.16 1021.78 1021.47 1021.04 1020.50 1020.18 1020.01 1019.45 1018.70 1018.02 1017.10 1016.88 1016.73 1016.03 1015.36 1014.18 1014.39 1014.75 1015.12 1015.60 1016.18 1016.72 1017.05 1016.78 1017.55 1017.92 1018.56
1024.47 1024.08 1023.61 1023.30 1022.94 1022.82 1022.40 1021.76 1021.28 1020.71 1020.27 1020.16 1019.95 1019.35 1018.57 1018.02 1017.67 1017.38 1016.95 1016.08 1014.84 1014.25 1014.51 1014.85 1015.26 1015.83 1016.35 1016.76 1017.27 1017.65 1018.12 1018.66
1025.06 1024.67 1024.27 1023.78 1023.46 1023.41 1023.06 1022.62 1021.83 1021.25 1020.87 1020.76 1020.76 1020.06 1019.43 1018.69 1018.22 1017.81 1017.61 1016.90 1016.01 1015.26 1014.43 1014.71 1015.06 1015.60 1016.11 1016.61 1016.82 1017.04 1018.31 1018.67
1025.47 1025.19 1024.96 1024.44 1024.10 1023.83 1023.59 1023.25 1022.64 1022.00 1021.62 1021.34 1021.14 1020.67 1020.13 1019.33 1018.63 1018.00 1017.80 1017.22 1016.64 1015.98 1014.93 1014.42 1014.87 1015.29 1015.74 1016.27 1016.54 1017.23 1017.80 1018.52
1026.03 1025.72 1025.36 1024.92 1024.71 1024.43 1024.03 1023.70 1023.16 1022.71 1022.24 1022.05 1021.93 1021.40 1020.82 1020.38 1019.72 1018.95 1018.11 1017.64 1016.98 1016.26 1015.47 1014.07 1014.61 1015.12 1015.49 1015.93 1016.25 1016.80 1017.35 1017.85
1026.35 1026.10 1025.80 1025.41 1025.12 1025.00 1024.64 1024.12 1023.58 1023.10 1022.76 1022.46 1022.27 1021.98 1021.60 1020.81 1020.17 1019.37 1018.62 1018.16 1017.61 1016.82 1016.10 1015.29 1014.37 1014.92 1015.19 1015.42 1015.80 1016.20 1016.66 1017.07
1026.39 1026.27 1026.06 1025.78 1025.52 1025.41 1025.09 1024.65 1024.04 1023.51 1023.05 1022.70 1022.36 1022.19 1021.79 1021.14 1020.47 1019.82 1019.05 1018.42 1017.76 1017.22 1016.70 1015.98 1015.19 1014.61 1014.81 1015.03 1015.42 1015.81 1016.18 1016.58
1026.40 1026.25 1026.14 1025.99 1025.79 1025.68 1025.32 1024.99 1024.34 1023.79 1023.45 1023.03 1022.47 1022.19 1021.93 1021.51 1020.90 1020.21 1019.48 1018.70 1018.07 1017.53 1017.17 1016.48 1015.98 1015.34 1014.52 1014.67 1015.09 1015.28 1015.65 1016.33
1026.47 1026.34 1026.21 1026.15 1025.98 1025.84 1025.60 1025.20 1024.46 1023.93 1023.66 1023.29 1022.81 1022.28 1021.98 1021.64 1021.22 1020.62 1019.96 1019.29 1018.72 1018.01 1017.35 1016.68 1016.15 1015.64 1014.57 1014.37 1014.55 1014.88 1015.30 1015.59
1026.78 1026.59 1026.43 1026.24 1026.02 1025.85 1025.71 1025.33 1024.61 1023.99 1023.78 1023.41 1022.93 1022.50 1021.97 1021.60 1021.25 1020.82 1020.34 1019.64 1018.93 1018.23 1017.38 1016.90 1016.27 1015.72 1014.95 1013.96 1014.02 1014.35 1014.77 1015.05
1026.98 1026.79 1026.64 1026.35 1026.10 1025.77 1025.62 1025.41 1024.74 1024.11 1023.80 1023.51 1023.06 1022.59 1022.08 1021.61 1021.21 1020.89 1020.50 1019.79 1019.01 1018.29 1017.70 1017.02 1016.44 1015.71 1015.12 1014.25 1013.78 1013.87 1014.30 1014.42
1027.13 1026.91 1026.70 1026.42 1026.14 1025.77 1025.51 1025.26 1024.79 1024.31 1024.01 1023.65 1023.29 1022.66 1022.20 1021.72 1021.25 1020.81 1020.57 1019.91 1019.06 1018.26 1017.57 1016.91 1016.48 1015.70 1015.34 1014.63 1013.49 1013.64 1013.73 1013.78
1027.25 1026.99 1026.74 1026.43 1026.14 1025.82 1025.43 1025.22 1024.80 1024.51 1024.24 1023.78 1023.36 1022.91 1022.24 1021.77 1021.34 1020.85 1020.54 1019.87 1019.09 1018.35 1017.67 1017.09 1016.51 1016.09 1015.41 1014.63 1014.28 1012.82 1013.23 1013.09
1027.24 1027.13 1026.69 1026.42 1026.06 1025.72 1025.34 1025.02 1024.84 1024.65 1024.27 1023.85 1023.36 1022.91 1022.32 1021.82 1021.42 1020.98 1020.61 1019.98 1019.24 1018.38 1017.69 1017.06 1016.77 1016.39 1016.07 1015.61 1015.51 1014.06 1012.78 1012.67
1027.32 1026.88 1026.50 1026.23 1026.01 1025.66 1025.25 1024.96 1024.91 1024.70 1024.34 1023.91 1023.46 1022.87 1022.47 1021.93 1021.61 1021.15 1020.77 1020.14 1019.47 1018.68 1017.95 1017.40 1017.09 1017.27 1017.01 1016.28 1015.34 1014.39 1013.80 1012.71
1027.10 1026.51 1026.25 1026.07 1025.69 1025.47 1025.22 1025.12 1025.01 1024.78 1024.37 1023.90 1023.45 1022.89 1022.48 1022.04 1021.72 1021.35 1020.91 1020.27 1019.67 1019.06 1018.44 1017.99 1017.82 1017.73 1017.70 1017.03 1016.29 1015.30 1014.58 1013.34
1026.63 1026.12 1025.87 1025.83 1025.53 1025.39 1025.33 1025.31 1025.12 1024.85 1024.42 1023.95 1023.50 1023.03 1022.52 1022.17 1021.85 1021.55 1021.13 1020.52 1019.86 1019.35 1018.93 1018.48 1018.23 1018.14 1017.89 1017.24 1016.51 1015.33 1014.24 1013.69
1026.00 1025.82 1025.68 1025.65 1025.54 1025.47 1025.47 1025.44 1025.37 1025.13 1024.74 1024.26 1023.70 1023.07 1022.51 1022.17 1022.03 1021.74 1021.44 1020.83 1020.13 1019.53 1019.21 1018.89 1018.58 1018.46 1017.90 1017.04 1015.98 1015.05 1014.43 1013.84
1025.64 1025.59 1025.64 1025.57 1025.52 1025.58 1025.61 1025.70 1025.66 1025.42 1024.97 1024.51 1023.95 1023.32 1022.56 1022.20 1022.06 1021.92 1021.63 1021.11 1020.47 1019.85 1019.33 1019.09 1018.83 1019.04 1018.42 1017.51 1016.30 1015.39 1014.87 1014.20
Wind_Speed
17 17 17 17 16 16 16 13 14 13 8 10 10 10 11 9 9 10 16 13 7 6 5 6 7 7 9 7 5 6 3 5
19 19 15 16 15 15 16 17 16 12 10 11 11 12 11 11 9 13 13 14 12 7 6 7 6 7 8 8 4 6 3 2
17 17 18 15 15 15 15 16 16 13 11 9 10 10 10 10 10 11 11 14 13 11 6 7 8 6 8 9 6 9 2 4
16 16 16 17 17 16 15 15 15 13 15 11 12 10 10 9 11 10 12 14 13 13 10 8 8 8 7 10 10 10 7 6
16 16 16 15 16 16 16 15 15 13 14 11 14 12 12 10 9 10 11 13 13 14 14 9 9 7 8 9 7 9 9 9
15 16 16 16 15 15 15 15 15 14 13 13 11 11 11 9 9 14 13 10 12 13 15 15 10 7 9 10 10 9 8 6
13 14 15 14 14 14 14 16 16 14 13 14 14 15 14 11 13 11 11 10 9 11 14 12 13 9 10 9 11 13 7 8
13 14 14 14 15 15 14 16 15 14 14 14 12 12 14 12 13 11 12 10 10 11 13 12 9 11 8 8 9 9 11 9
15 14 12 13 14 14 14 16 15 13 13 14 12 11 7 8 10 10 9 8 9 13 11 11 12 12 9 9 9 9 10 9
15 16 14 13 12 14 14 15 15 12 12 12 12 12 10 9 13 10 9 12 11 11 12 11 11 12 11 9 7 9 10 11
15 13 14 13 13 11 11 14 15 13 11 11 11 12 11 10 9 11 13 12 13 13 12 10 11 11 10 11 8 8 10 9
14 14 13 13 13 12 10 12 14 12 13 11 13 12 13 11 10 11 12 12 13 13 12 10 10 10 11 10 9 10 11 9
14 14 15 13 13 13 11 10 11 11 12 13 11 13 12 12 11 11 12 12 12 12 11 10 10 9 10 11 13 10 10 10
14 14 13 12 12 12 12 11 11 11 12 13 12 11 12 12 12 11 12 12 12 12 11 10 9 10 11 11 11 11 7 8
13 13 11 10 12 11 12 10 11 11 11 11 12 10 12 11 12 11 11 12 12 12 10 10 9 11 13 13 13 12 11 7
13 13 10 10 11 10 11 10 10 11 11 10 11 11 11 12 11 12 11 12 11 10 10 9 9 10 10 13 12 10 9 9
14 12 12 12 12 11 11 10 10 11 11 11 10 12 10 11 11 11 12 12 11 8 9 9 8 9 17 18 14 10 7 7
11 11 11 11 10 10 9 10 10 11 10 12 12 12 10 10 11 11 12 12 11 7 9 9 7 12 22 24 24 7 6 5
9 9 10 9 8 9 9 10 11 10 10 11 12 12 11 9 9 11 10 10 10 10 8 8 8 11 23 26 25 12 9 9
Wind_Direction
7 10 360 354 13 8 359 7 357 352 10 353 352 347 342 353 355 356 344 335 177 177 183 175 177 179 196 201 194 151 124 160
351 357 7 354 10 11 1 2 358 359 4 4 353 347 344 338 358 350 347 340 321 181 178 173 181 185 188 183 163 150 130 149
1 356 352 355 9 7 4 3 354 5 0 13 352 341 344 329 346 344 354 337 336 343 182 185 184 182 176 172 197 146 145 173
0 3 358 352 1 4 3 2 355 8 4 1 352 349 349 345 344 343 349 346 338 329 311 187 191 183 183 197 180 180 174 184
358 357 357 356 2 359 359 1 354 9 3 7 1 352 347 344 338 337 340 345 340 334 338 208 190 194 194 194 181 190 179 186
358 355 354 356 3 359 353 357 354 1 3 3 359 357 345 340 340 339 339 341 342 348 348 341 193 197 201 204 193 181 196 182
357 356 352 356 0 356 353 355 348 357 1 358 358 359 351 345 346 343 339 339 343 348 347 341 339 199 208 200 204 200 173 186
349 355 353 355 357 355 352 349 343 354 360 354 353 2 355 350 348 342 338 338 342 341 344 333 335 325 198 196 200 194 207 207
356 357 356 352 353 354 353 344 339 356 359 351 350 357 358 352 347 343 336 333 332 329 330 333 330 321 302 200 202 203 203 192
353 351 358 349 349 351 353 341 339 349 1 352 349 346 357 354 350 347 343 332 329 331 325 322 329 326 313 221 206 197 206 210
344 349 347 346 343 346 351 339 337 342 359 351 344 347 347 351 352 350 347 333 328 328 324 328 320 323 313 314 212 209 209 210
339 344 347 338 340 338 350 340 335 350 348 354 343 342 344 351 354 351 351 333 332 327 325 326 328 325 325 320 253 212 218 204
331 338 341 338 337 335 342 339 336 348 343 339 344 338 348 353 354 350 351 336 331 328 326 327 328 325 323 352 342 218 205 202
340 336 327 333 331 330 334 339 348 346 338 338 338 342 342 352 351 349 353 339 336 332 331 333 340 9 5 354 327 336 235 207
332 316 329 332 324 332 333 348 351 344 335 335 332 343 344 349 353 353 352 341 340 343 347 348 41 23 6 353 341 339 329 280
314 321 329 327 330 335 343 355 346 340 332 336 331 342 347 347 356 352 352 344 342 353 2 5 30 25 6 352 336 325 308 318
299 330 336 339 341 341 354 351 343 344 343 339 343 337 348 350 354 352 352 344 343 6 12 11 36 17 353 352 340 306 314 316
334 332 345 343 342 355 357 358 358 355 352 346 343 341 342 352 356 350 358 347 347 13 16 17 21 21 4 355 347 335 325 305
335 345 348 340 352 6 4 8 5 353 349 343 339 335 336 352 358 344 5 351 359 0 13 21 16 37 13 2 349 357 359 2